Sabadell, Spain

6:23 PM CEST en Octubre 21, 2018 (GMT +0200)
Sabadell

Tiempo Historia de LELL - Octubre, 2018

Change the Weather History Date:

Viernes, Octubre 12, 2018

  Actual Average (LEBL) Record (LEBL)
Temperature  
Temperatura media 69 ° F -  
Temperatura máxima 78 ° F 70 ° F 84 ° F (1997)
Temperatura mínima 60 ° F 57 ° F 53 ° F (2000)
Cooling Degree Days 4    
Growing Degree Days 19 (Base 50)    
Moisture  
Punto de rocío 64 ° F    
Average Humidity 86    
Maximum Humidity 100    
Minimum Humidity 69    
Precipitación  
Precipitación 0.00 pul - - ()
Presión al nivel del mar  
Presión al nivel del mar 30.15 pul    
Viento  
Velocidad del viento 2 mph ()    
Velocidad máxima del viento 8 mph    
Max Gust Speed -    
Visibilidad 5.9 Millas    
Eventos      
Averages and records for this station are not official NWS values.
T = Trace of Precipitation, MM = Missing Value Source: Averaged Metar Reports

Daily Weather History Graph

Daily Weather History Graph

Search for Another Location

Airport or City:

Astronomía

Oct. 12, 2018 Salida Puesta
Hora real 8:00 AM CEST 7:15 PM CEST
Crepúsculo civil 7:32 AM CEST 7:43 PM CEST
Crepúsculo náutico 7:00 AM CEST 8:15 PM CEST
Crepúsculo astronómico 6:27 AM CEST 8:47 PM CEST
Luna 11:20 AM CEST (10/12) 9:39 PM CEST (10/12)
Horas de luz 12h 11m
Horas de luz
11h 15m
Creciente, 12% of the Moon is Illuminated
Oct 12
Creciente
Oct 16
Cuarto creciente
Oct 24
Luna llena
Oct 31
Cuarto menguante
Nov 7
Nueva

Hourly Weather History & Observations

Hora (CEST) Temp. Punto de rocío Humedad Presión Visibilidad Wind Dir Velocidad del viento Velocidad de ráfagas Precip Eventos Condiciones
12:00 AM 66.2 ° F 62.6 ° F 88% 30.06 pul 6.2 mi Sin viento Sin viento - N/A   Parcialmente nublado
12:30 AM 66.2 ° F 62.6 ° F 88% 30.06 pul 6.2 mi Oeste 2.3 mph - N/A   Nubes dispersas
1:00 AM 66.2 ° F 64.4 ° F 94% 30.06 pul 6.2 mi ONO 3.5 mph - N/A   Muy nublado
1:30 AM 64.4 ° F 62.6 ° F 94% 30.09 pul 6.2 mi Sin viento Sin viento - N/A   Desconocido
2:00 AM 64.4 ° F 62.6 ° F 94% 30.09 pul 6.2 mi Variable 1.2 mph - N/A   Desconocido
2:30 AM 64.4 ° F 62.6 ° F 94% 30.09 pul 5.6 mi Oeste 3.5 mph - N/A   Desconocido
3:00 AM 64.4 ° F 62.6 ° F 94% 30.09 pul 5.0 mi Sin viento Sin viento - N/A   Desconocido
3:30 AM 62.6 ° F 62.6 ° F 100% 30.09 pul 5.6 mi Sin viento Sin viento - N/A   Desconocido
4:00 AM 62.6 ° F 60.8 ° F 94% 30.09 pul 5.6 mi Oeste 3.5 mph - N/A   Desconocido
4:30 AM 62.6 ° F 60.8 ° F 94% 30.09 pul 5.0 mi Variable 1.2 mph - N/A   Desconocido
5:00 AM 62.6 ° F 60.8 ° F 94% 30.09 pul 5.0 mi Variable 2.3 mph - N/A   Desconocido
5:30 AM 62.6 ° F 62.6 ° F 100% 30.09 pul 5.6 mi Sin viento Sin viento - N/A   Desconocido
6:00 AM 60.8 ° F 60.8 ° F 100% 30.09 pul 5.6 mi Variable 1.2 mph - N/A   Desconocido
6:30 AM 60.8 ° F 60.8 ° F 100% 30.09 pul 4.3 mi Variable 2.3 mph - N/A   Parcialmente nublado
7:00 AM 60.8 ° F 60.8 ° F 100% 30.12 pul 5.0 mi Oeste 3.5 mph - N/A   Nubes dispersas
7:30 AM 60.8 ° F 60.8 ° F 100% 30.12 pul 4.3 mi Sin viento Sin viento - N/A   Desconocido
8:00 AM 60.8 ° F 59.0 ° F 94% 30.15 pul 5.0 mi Sin viento Sin viento - N/A   Nubes dispersas
8:30 AM 60.8 ° F 60.8 ° F 100% 30.15 pul 5.0 mi ONO 1.2 mph - N/A   Nubes dispersas
9:00 AM 62.6 ° F 60.8 ° F 94% 30.15 pul 5.0 mi Sin viento Sin viento - N/A   Nubes dispersas
9:30 AM 62.6 ° F 60.8 ° F 94% 30.18 pul 6.2 mi Sin viento Sin viento - N/A   Muy nublado
10:00 AM 64.4 ° F 62.6 ° F 94% 30.18 pul 6.2 mi Sin viento Sin viento - N/A   Muy nublado
10:30 AM 66.2 ° F 62.6 ° F 88% 30.21 pul 6.2 mi Sin viento Sin viento - N/A   Muy nublado
11:00 AM 66.2 ° F 62.6 ° F 88% 30.21 pul 6.2 mi Sin viento Sin viento - N/A   Muy nublado
12:00 PM 71.6 ° F 64.4 ° F 78% 30.21 pul 6.2 mi Sin viento Sin viento - N/A   Muy nublado
12:30 PM 73.4 ° F 64.4 ° F 73% 30.21 pul 6.2 mi Sin viento Sin viento - N/A   Nubes dispersas
1:00 PM 75.2 ° F 66.2 ° F 73% 30.21 pul 6.2 mi Variable 2.3 mph - N/A   Nubes dispersas
1:30 PM 75.2 ° F 66.2 ° F 73% 30.21 pul 6.2 mi ESE 4.6 mph - N/A   Nubes dispersas
2:00 PM 77.0 ° F 66.2 ° F 69% 30.21 pul 6.2 mi SE 2.3 mph - N/A   Nubes dispersas
2:30 PM 75.2 ° F 66.2 ° F 73% 30.18 pul 6.2 mi SSE 3.5 mph - N/A   Nubes dispersas
3:00 PM 77.0 ° F 66.2 ° F 69% 30.18 pul 6.2 mi SE 5.8 mph - N/A   Nubes dispersas
3:30 PM 77.0 ° F 68.0 ° F 74% 30.18 pul 6.2 mi ESE 5.8 mph - N/A   Nubes dispersas
4:00 PM 77.0 ° F 68.0 ° F 74% 30.18 pul 6.2 mi ESE 6.9 mph - N/A   Nubes dispersas
4:30 PM 77.0 ° F 68.0 ° F 74% 30.15 pul 6.2 mi Este 8.1 mph - N/A   Parcialmente nublado
5:00 PM 78.8 ° F 68.0 ° F 69% 30.18 pul 6.2 mi Sur 8.1 mph - N/A   Parcialmente nublado
5:30 PM 77.0 ° F 68.0 ° F 74% 30.15 pul 6.2 mi Sur 6.9 mph - N/A   Parcialmente nublado
6:00 PM 77.0 ° F 68.0 ° F 74% 30.15 pul 6.2 mi Sur 6.9 mph - N/A   Parcialmente nublado
6:30 PM 75.2 ° F 68.0 ° F 78% 30.15 pul 6.2 mi Sur 6.9 mph - N/A   Parcialmente nublado
7:00 PM 73.4 ° F 68.0 ° F 83% 30.18 pul 6.2 mi Sur 5.8 mph - N/A   Parcialmente nublado
7:30 PM 73.4 ° F 66.2 ° F 78% 30.18 pul 6.2 mi Sur 3.5 mph - N/A   Nubes dispersas
8:00 PM 71.6 ° F 66.2 ° F 83% 30.18 pul 6.2 mi Sin viento Sin viento - N/A   Nubes dispersas
8:30 PM 71.6 ° F 66.2 ° F 83% 30.18 pul 6.2 mi Variable 2.3 mph - N/A   Muy nublado
9:00 PM 71.6 ° F 66.2 ° F 83% 30.18 pul 6.2 mi SSE 3.5 mph - N/A   Nublado
9:30 PM 69.8 ° F 64.4 ° F 83% 30.18 pul 6.2 mi Sin viento Sin viento - N/A   Parcialmente nublado
10:00 PM 68.0 ° F 64.4 ° F 88% 30.21 pul 6.2 mi Sin viento Sin viento - N/A   Desconocido
10:30 PM 68.0 ° F 64.4 ° F 88% 30.21 pul 6.2 mi Sin viento Sin viento - N/A   Desconocido
11:00 PM 66.2 ° F 64.4 ° F 94% 30.21 pul 6.2 mi Sin viento Sin viento - N/A   Parcialmente nublado
11:30 PM 66.2 ° F 64.4 ° F 94% 30.21 pul 6.2 mi ONO 3.5 mph - N/A   Nubes dispersas